Plymouth, MA

8:17 AM EDT on October 21, 2017 (GMT -0400)
Plymouth Municipal

Weather History for KPYM - March, 2013

Change the Weather History Date:

Saturday, March 9, 2013

  Actual Average Record
Temperature  
Mean Temperature 36 °F -  
Max Temperature 37 °F 43 °F 69 °F (2016)
Min Temperature 34 °F 23 °F 3 °F (2007)
Degree Days  
Heating Degree Days 30    
Moisture  
Dew Point 28 °F    
Average Humidity 73    
Maximum Humidity 82    
Minimum Humidity 65    
Precipitation  
Precipitation 0.00 in - - ()
Sea Level Pressure  
Sea Level Pressure 30.22 in    
Wind  
Wind Speed 15 mph (NNE)    
Max Wind Speed 22 mph    
Max Gust Speed 30 mph    
Visibility 10 miles    
Events      
Averages and records for this station are not official NWS values.
T = Trace of Precipitation, MM = Missing Value Source: NWS Daily Summary

Daily Weather History Graph

Daily Weather History Graph

Search for Another Location

Airport or City:

Trip Planner

Search our weather history database for the weather conditions in past years. The results will help you decide how hot, cold, wet, or windy it might be!

Date:

Astronomy

Mar. 09, 2013 Rise Set
Actual Time 6:04 AM EST 5:42 PM EST
Civil Twilight 5:36 AM EST 6:10 PM EST
Nautical Twilight 5:04 AM EST 6:42 PM EST
Astronomical Twilight 4:31 AM EST 7:15 PM EST
Moon 4:28 AM EST (3/9) 3:40 PM EST (3/9)
Length of Visible Light 12h 33m
Length of Day
11h 38m
Waning Crescent, 5% of the Moon is Illuminated
Mar 9
Waning Crescent
Mar 11
New
Mar 19
First Quarter
Mar 27
Full
Apr 3
Last Quarter

Hourly Weather History & Observations

Time (EST) Temp. Windchill Dew Point Humidity Pressure Visibility Wind Dir Wind Speed Gust Speed Precip Events Conditions
12:52 AM 37.9 °F 28.9 °F 27.0 °F 65% 30.11 in 10.0 mi North 16.1 mph 26.5 mph N/A   Clear
1:52 AM 37.9 °F 28.9 °F 27.0 °F 65% 30.10 in 10.0 mi NNE 16.1 mph 26.5 mph N/A   Clear
2:52 AM 37.0 °F 27.7 °F 27.0 °F 67% 30.10 in 10.0 mi NNE 16.1 mph 25.3 mph N/A   Clear
3:52 AM 36.0 °F 24.7 °F 27.0 °F 70% 30.11 in 10.0 mi North 21.9 mph 29.9 mph N/A   Clear
4:52 AM 35.1 °F 24.8 °F 26.1 °F 70% 30.13 in 10.0 mi NNE 17.3 mph 26.5 mph N/A   Clear
5:52 AM 35.1 °F 25.9 °F 27.0 °F 72% 30.15 in 10.0 mi NNE 13.8 mph 24.2 mph N/A   Partly Cloudy
6:05 AM 35.6 °F 26.2 °F 26.6 °F 70% 30.15 in 10.0 mi NNE 15.0 mph 24.2 mph N/A   Mostly Cloudy
6:52 AM 35.1 °F 24.1 °F 27.0 °F 72% 30.18 in 10.0 mi NNE 19.6 mph 25.3 mph N/A   Overcast
7:52 AM 36.0 °F 25.6 °F 28.0 °F 73% 30.20 in 10.0 mi NNE 18.4 mph 25.3 mph N/A   Overcast
8:52 AM 36.0 °F 26.0 °F 28.0 °F 73% 30.21 in 10.0 mi NNE 17.3 mph 25.3 mph N/A   Overcast
9:52 AM 36.0 °F 26.3 °F 28.0 °F 73% 30.22 in 10.0 mi NNE 16.1 mph 26.5 mph N/A   Overcast
10:52 AM 37.0 °F 29.3 °F 28.0 °F 70% 30.22 in 10.0 mi NNE 11.5 mph 24.2 mph N/A   Overcast
11:52 AM 37.0 °F 27.4 °F 28.0 °F 70% 30.24 in 10.0 mi North 17.3 mph 29.9 mph N/A   Overcast
12:52 PM 36.0 °F 25.0 °F 28.9 °F 76% 30.25 in 10.0 mi North 20.7 mph 26.5 mph N/A   Overcast
1:52 PM 37.0 °F 27.4 °F 28.0 °F 70% 30.25 in 10.0 mi NE 17.3 mph 26.5 mph N/A   Mostly Cloudy
2:07 PM 37.4 °F 27.5 °F 28.4 °F 70% 30.24 in 10.0 mi NNE 18.4 mph 27.6 mph N/A   Scattered Clouds
2:52 PM 37.0 °F 27.4 °F 28.0 °F 70% 30.25 in 10.0 mi NE 17.3 mph 26.5 mph N/A   Partly Cloudy
3:52 PM 37.0 °F 29.3 °F 28.0 °F 70% 30.26 in 10.0 mi NE 11.5 mph 23.0 mph N/A   Partly Cloudy
4:52 PM 37.0 °F 29.3 °F 28.9 °F 73% 30.27 in 10.0 mi NE 11.5 mph - N/A   Clear
5:52 PM 35.1 °F 28.6 °F 28.0 °F 76% 30.29 in 10.0 mi NNE 8.1 mph - N/A   Clear
6:52 PM 34.0 °F 28.0 °F 28.0 °F 79% 30.31 in 10.0 mi NNE 6.9 mph - N/A   Clear
7:52 PM 35.1 °F 28.6 °F 28.9 °F 78% 30.30 in 10.0 mi NE 8.1 mph - N/A   Clear
8:52 PM 36.0 °F 29.6 °F 30.0 °F 79% 30.31 in 10.0 mi NE 8.1 mph - N/A   Clear
9:52 PM 36.0 °F 29.6 °F 30.0 °F 79% 30.32 in 10.0 mi NE 8.1 mph - N/A   Clear
10:52 PM 35.1 °F 30.1 °F 30.0 °F 82% 30.32 in 10.0 mi NE 5.8 mph - N/A   Clear
11:52 PM 36.0 °F 30.3 °F 30.0 °F 79% 30.32 in 10.0 mi NNE 6.9 mph - N/A   Clear